Helicity
7 12 154 376 477 462 382 251 278 251 237 163 143 108 66 78 94 193 122 206 171 187 191 185 192 170 178 157 123 192 274 205
-32 76 223 283 470 477 362 295 324 300 269 213 176 157 78 49 -10 54 115 194 231 208 200 178 172 163 140 106 155 177 299 253
21 144 294 379 434 464 342 300 345 267 255 221 178 157 81 53 -16 50 87 153 161 149 112 129 143 147 149 159 162 303 276 224
93 190 268 371 466 488 324 316 309 256 268 282 268 211 161 80 85 74 80 129 142 86 112 142 131 134 115 162 181 217 267 221
99 161 266 324 426 383 287 310 314 277 252 260 239 217 169 96 100 98 62 100 173 148 76 98 133 191 155 163 195 234 283 237
102 103 259 338 425 366 292 288 298 279 222 202 215 188 165 168 112 97 112 102 24 94 57 111 150 214 191 224 185 225 276 287
100 64 247 359 385 276 278 281 261 244 201 176 185 185 160 123 123 128 94 139 139 183 205 192 197 219 248 230 260 267 323 313
71 49 297 395 372 261 240 263 265 190 177 165 171 171 148 92 78 85 88 136 250 281 253 265 242 303 327 272 319 349 335 319
132 82 335 397 361 296 217 242 255 179 156 148 138 154 112 50 12 33 62 116 194 445 357 344 286 348 399 387 355 388 450 473
318 87 232 311 361 282 209 238 206 142 120 151 126 136 76 42 26 48 18 59 229 205 425 398 407 398 436 393 371 469 431 318
415 118 139 206 246 244 208 202 155 114 96 110 121 124 65 77 63 76 117 173 186 236 343 328 392 402 433 341 373 346 321 418
431 208 259 153 122 123 233 194 140 102 98 75 85 113 62 71 71 72 113 182 212 336 338 317 471 449 478 360 330 298 322 190
470 301 305 144 39 69 135 136 121 93 104 81 37 65 80 34 54 72 109 119 142 206 265 360 370 459 416 413 418 305 213 168
578 342 140 96 72 59 71 87 73 111 122 90 48 40 53 43 32 31 65 94 108 134 198 277 387 380 397 266 133 169 139 107
577 206 -82 110 79 72 84 54 72 82 123 79 59 41 57 52 56 38 29 54 79 82 103 145 120 177 163 151 120 137 169 164
409 227 25 109 127 129 110 101 76 85 86 77 41 50 65 71 59 51 31 28 34 50 53 44 45 49 65 91 119 164 200 213
204 76 154 200 160 143 158 111 127 98 60 44 37 74 88 93 82 67 75 56 45 63 89 90 103 93 79 97 183 231 247 271
80 186 205 318 234 176 139 165 110 137 101 79 70 78 99 108 109 104 112 154 165 177 181 182 163 122 151 267 323 317 355 375
23 27 16 90 98 127 25 139 182 120 122 125 116 106 110 123 167 222 238 244 251 246 240 237 262 264 287 379 446 437 482 517
Wind_Speed
81 65 33 24 20 16 14 8 1 3 10 7 6 5 6 14 15 16 67 55 55 65 61 55 50 50 53 46 40 44 36 28
74 49 32 29 21 17 16 9 2 4 11 10 7 8 7 11 22 36 56 60 62 62 58 56 52 48 43 42 42 37 32 29
73 49 35 28 26 20 17 9 3 3 6 9 11 8 8 11 23 35 36 57 72 63 56 51 48 45 44 45 46 44 37 29
77 41 31 29 29 26 20 10 4 4 5 8 12 9 6 6 11 21 25 48 53 59 53 48 46 44 44 45 44 41 37 32
57 30 35 25 28 24 17 11 5 7 7 4 10 9 7 4 12 15 19 24 58 53 47 46 45 48 45 44 44 42 39 36
56 25 22 35 38 26 18 10 5 7 10 7 8 14 5 2 11 18 24 26 36 37 44 47 47 55 52 47 43 41 40 40
73 75 30 37 42 35 20 13 10 9 12 11 10 11 12 7 10 20 28 36 43 48 55 53 51 57 56 52 48 43 44 42
76 61 28 28 35 32 23 15 14 13 11 13 9 9 11 13 16 22 24 38 53 69 58 60 51 55 58 55 54 48 42 39
74 75 25 24 33 33 26 19 14 15 13 12 8 6 7 10 16 14 20 38 64 66 60 60 52 52 54 53 51 51 43 37
68 65 56 35 32 37 30 20 14 14 13 11 9 6 8 11 12 8 10 31 42 62 58 59 59 50 50 48 44 43 42 38
64 59 62 59 44 35 25 20 15 13 12 10 10 11 9 10 11 6 7 5 20 39 49 56 64 51 47 43 41 37 35 37
65 62 58 53 48 50 27 22 17 15 12 10 11 13 10 11 14 18 12 9 8 19 29 38 47 48 40 38 37 30 24 32
66 60 48 40 42 54 46 25 17 15 10 8 10 12 14 7 11 14 19 18 6 6 17 30 32 35 44 30 28 27 25 30
65 60 46 44 39 52 51 52 37 15 11 8 7 10 14 11 5 9 14 18 22 13 10 25 31 36 40 25 17 24 27 41
58 52 40 44 37 44 44 47 48 38 14 11 9 8 14 12 9 3 5 9 14 20 24 21 12 20 40 29 19 15 15 18
47 44 46 47 34 42 42 42 45 39 31 15 9 7 7 10 9 9 2 1 5 8 10 8 8 12 13 14 13 14 16 19
46 40 41 40 41 34 42 43 36 34 31 31 24 9 7 9 10 11 12 1 6 9 10 6 7 15 19 17 16 17 18 19
49 43 45 51 51 48 47 43 41 35 30 29 27 23 14 7 8 8 4 3 4 7 9 11 15 19 13 10 10 14 15 16
48 49 51 51 60 55 57 42 38 33 32 30 25 22 23 17 8 7 6 6 3 5 8 10 8 11 4 2 3 6 9 12
Wind_Direction
294 297 281 260 245 233 207 211 225 35 20 49 80 104 11 18 45 163 210 204 202 204 208 210 210 212 213 211 203 220 221 222
294 303 283 269 244 220 200 199 183 58 28 48 54 97 75 51 96 135 209 212 208 208 210 213 215 210 200 196 213 196 217 221
287 297 278 246 233 221 206 209 191 128 59 59 39 80 70 67 106 128 212 215 215 217 215 214 213 210 205 207 212 217 227 208
280 291 276 257 224 208 202 209 203 148 91 59 53 54 50 91 128 141 154 216 212 214 216 214 211 209 196 199 208 204 214 222
284 283 271 242 226 228 220 213 215 160 147 103 120 101 132 225 168 177 202 192 225 224 218 215 209 217 208 208 217 215 221 209
279 273 237 260 251 226 221 231 231 164 159 157 144 145 120 247 218 213 203 217 195 206 215 220 219 224 223 213 217 217 225 227
273 263 274 265 250 244 219 218 193 173 158 158 157 156 160 193 210 221 220 236 232 227 229 224 225 229 227 224 225 223 229 232
270 273 263 257 222 212 216 203 184 175 168 159 155 155 163 180 205 217 233 242 245 234 228 227 221 230 230 230 230 230 227 228
283 264 242 234 216 206 204 192 184 174 166 157 146 134 145 169 177 213 240 254 252 236 224 225 223 227 229 229 233 233 236 235
287 263 263 253 214 198 193 197 199 179 166 151 137 121 126 133 157 242 246 203 248 239 226 226 225 226 229 227 230 233 241 236
288 269 258 252 240 219 216 222 203 180 167 149 131 122 107 90 82 91 330 60 245 233 226 228 228 228 230 220 227 235 244 243
283 278 257 248 240 237 229 230 209 180 171 149 134 120 98 84 84 81 68 74 108 231 211 231 220 219 220 220 231 232 244 245
277 286 256 248 244 243 247 232 209 188 185 156 136 121 115 74 68 67 83 98 80 225 236 228 220 218 221 207 214 236 251 261
272 273 258 255 246 243 244 243 247 212 197 175 152 129 121 107 38 39 77 92 104 98 240 241 235 229 224 219 188 240 258 267
270 270 264 257 256 246 245 244 246 249 218 185 168 150 126 112 96 26 48 75 95 113 122 130 201 234 237 239 235 238 265 279
280 277 264 261 265 252 246 243 245 247 250 228 200 184 143 119 103 98 326 32 71 101 111 126 148 154 180 194 228 248 262 277
275 284 275 270 276 267 251 243 240 242 246 253 259 220 184 141 124 117 117 226 284 283 279 273 259 262 261 251 252 257 270 276
286 286 288 276 279 269 254 249 244 237 239 249 258 256 248 194 148 134 145 144 269 279 283 278 279 282 273 263 267 278 279 285
289 297 294 301 269 263 254 253 244 240 241 242 248 251 256 253 243 245 251 269 262 279 293 297 298 303 292 243 294 309 313 314